MIDORI II (ADEOS-II)

Last updated on Sun Jul 06 2025 00:02:13 GMT+0000 (Coordinated Universal Time)

1 27597U 02056A 25186.45653272 .00000235 00000+0 11062-3 0 9991 2 27597 98.7385 138.8253 0001649 46.0736 314.0581 14.29062459174981
UTC large
Height (km)
Speed (km/s)
/
Latitude / Longitude
Inclination (degrees)
Orbital Period (minutes)
Azimuth
Elevation
Range (km)
Doppler Factor

Next 0 passes for location: London (51.5072 / 0.1276)

Sorry there are no passes over London.